Location: Gad�tanya
(48.0500°N, 20.8500°E)
Time: 11:46:16
(UTC+00:00)

Iridium 2 - Pass Details

Date: 05 July 2020
Orbit: 503 x 516 km, 85.5° (Epoch: 14 August)

Event Time Altitude Azimuth Distance (km) Brightness Sun altitude
Rises 21:00:18 0° 0° (N) 2,651 8.6 -15.7°
Reaches altitude 10° 21:02:31 10° 7° (N) 1,759 7.3 -15.9°
Maximum altitude 21:06:13 45° 81° (E) 719 4.3 -16.1°
Enters shadow 21:07:33 31° 131° (SE) 923 4.5 -16.2°
